Location: ??????
(56.0120°N, 39.1740°E)
Time: 06:57:20
(UTC+00:00)

Sich 1 Rocket - Pass Details

Date: 14 April 2026
Orbit: 610 x 646 km, 82.5° (Epoch: 12 May)

Event Time Altitude Azimuth Distance (km) Brightness Sun altitude
Exits shadow 22:02:16 42° 277° (W) 900 4.3 -23.8°
Maximum altitude 22:02:36 42° 290° (WNW) 888 4.3 -23.8°
Drops below altitude 10° 22:06:49 10° 2° (N) 1,996 7.2 -23.7°
Sets 22:09:09 0° 9° (N) 2,901 8.5 -23.6°
